#timestamp,LO_Frequency,Hit,StdDev 
1457593215.8,286047001.2,N
1457593235.7,286047004.8,N
1457593255.5,286047006.5,N
1457593275.3,286047006.1,N
1457593295.2,286047009.1,N
1457593315.9,286047008.3,N
1457593335.7,286047012.4,Y
1457593355.6,286047007.4,P
1457593375.4,286047007.0,P
1457593395.2,286047006.5,P
1457593415.1,286047005.2,Y
1457593416.0,286047005.2,P
1457593435.8,286046998.3,P
1457593455.6,286046996.9,N
1457593475.5,286046992.7,N
1457593495.3,286046987.7,N
1457593515.1,286046986.7,N
1457593535.9,286046985.3,N
1457593555.7,286046986.1,N
1457593575.5,286046986.2,N
1457593595.4,286046986.8,N
1457593615.2,286046982.2,N
1457593635.0,286046979.6,N
1457593635.9,286046979.6,N
1457593655.8,286046977.1,N
1457593675.6,286046972.8,Y
1457593695.4,286046985.0,P
1457593715.3,286046983.4,P
1457593735.1,286046981.4,P
1457593736.0,286046981.4,Y
1457593755.8,286046998.0,P
1457593775.7,286046998.8,N
1457593795.5,286046997.4,N
1457593815.3,286046996.6,N
1457593835.2,286046996.9,N
1457593855.9,286046995.6,N
1457593875.7,286046993.4,N
1457593895.5,286046994.0,N
1457593915.4,286046993.6,N
1457593935.2,286046993.9,N
1457593955.0,286046993.0,N
1457593955.9,286046993.0,N
1457593975.8,286046988.9,Y
1457593995.6,286046998.4,P
1457594015.4,286047000.7,N
1457594035.3,286047002.1,N
1457594055.1,286046998.7,N
1457594075.8,286046998.2,N
1457594095.7,286047003.7,N
1457594115.5,286047001.7,N
1457594135.3,286047001.8,N
1457594155.2,286047000.9,N
1457594175.9,286047000.0,N
1457594195.7,286047002.1,N
1457594215.6,286047002.7,N
1457594235.4,286047001.2,N
1457594255.2,286046994.3,N
1457594275.0,286046992.6,N
1457594275.9,286046992.6,N
1457594295.8,286046993.0,N
1457594315.6,286046991.7,N
1457594335.4,286046990.4,N
1457594355.3,286046988.8,N
1457594375.1,286046988.5,N
1457594395.8,286046990.7,N
1457594415.7,286046993.9,N
1457594435.5,286046992.3,N
1457594455.3,286046991.3,N
1457594475.2,286046988.5,N
1457594495.9,286046989.6,N
1457594515.7,286046989.3,N
1457594535.6,286046988.2,N
1457594555.4,286046987.2,N
1457594575.2,286046989.2,N
1457594595.0,286046993.1,N
1457594596.0,286046993.1,N
1457594615.8,286046994.6,N
1457594635.6,286046994.0,N
1457594655.4,286046997.7,N
1457594675.3,286046994.9,N
1457594695.1,286046998.0,N
1457594715.8,286046995.1,N
1457594735.7,286046995.7,N
1457594755.5,286046997.4,N
1457594775.3,286046995.3,N
1457594795.2,286046993.8,N
1457594815.9,286046998.1,N
1457594835.7,286046996.9,N
1457594855.6,286046998.8,N
1457594875.4,286046997.2,N
1457594895.2,286047002.8,N
1457594915.0,286047002.7,N
1457594916.0,286047002.7,N
1457594935.8,286047002.4,N
1457594955.6,286047001.9,N
1457594975.4,286047004.3,N
1457594995.3,286047003.8,N
1457595015.1,286047002.8,N
1457595035.8,286047002.7,N
1457595055.7,286047004.4,N
1457595075.5,286047001.7,N
1457595095.3,286047002.5,N
1457595115.2,286047001.3,N
1457595135.9,286047005.3,N
1457595155.7,286047005.5,N
1457595175.6,286047004.8,N
1457595195.4,286047001.3,N
1457595215.2,286047005.1,N
1457595235.1,286047006.1,N
1457595236.0,286047006.1,N
1457595255.8,286047011.5,Y
1457595275.6,286047014.3,P
1457595295.5,286047014.5,N
1457595315.3,286047017.0,N
1457595335.1,286047020.1,Y
1457595355.9,286047003.3,P
1457595375.7,286047004.4,N
1457595395.5,286047001.4,N
1457595415.4,286047007.2,N
1457595435.2,286047003.0,N
1457595455.0,286047003.5,N
1457595455.9,286047003.5,N
1457595475.8,286047003.0,N
1457595495.6,286047006.0,N
1457595515.4,286047002.5,N
1457595535.3,286047002.1,N
1457595555.1,286047007.4,N
1457595556.0,286047007.4,N
1457595575.8,286047005.7,N
1457595595.7,286047005.6,N
1457595615.5,286047005.3,N
1457595635.3,286047003.1,N
1457595655.2,286047006.0,N
1457595675.9,286047007.1,N
1457595695.7,286047007.1,N
1457595715.6,286047008.7,Y
1457595735.4,286047005.9,P
1457595755.2,286047002.6,P
1457595775.0,286046998.1,N
1457595776.0,286046998.1,N
1457595795.8,286046998.5,N
1457595815.6,286046996.8,N
1457595835.4,286046998.8,N
1457595855.3,286047000.8,N
1457595875.1,286046998.8,N
1457595895.8,286047000.6,N
1457595915.7,286047002.1,N
1457595935.5,286047001.8,N
1457595955.3,286046998.9,N
1457595975.2,286046996.7,N
1457595995.9,286046996.3,N
1457596015.7,286046996.4,N
1457596035.6,286046993.7,N
1457596055.4,286046996.2,N
1457596075.2,286046992.7,N
1457596095.0,286046991.9,N
1457596096.0,286046991.9,N
1457596115.8,286046997.5,N
1457596135.6,286046997.1,N
1457596155.4,286046996.7,N
1457596175.3,286046996.0,N
1457596195.1,286046997.4,N
1457596215.8,286046998.0,N
1457596235.7,286046993.9,N
1457596255.5,286046992.9,N
1457596275.3,286046994.0,N
1457596295.2,286046995.9,N
1457596315.9,286046991.0,Y
1457596335.7,286046989.4,P
1457596355.6,286046988.4,P
1457596375.4,286046988.3,P
1457596395.2,286046980.9,Y
1457596415.1,286046990.1,P
1457596416.0,286046990.1,P
1457596435.8,286046990.1,P
1457596455.6,286046993.0,Y
1457596475.5,286047002.4,P
1457596495.3,286047000.9,N
1457596515.1,286047000.6,N
1457596535.9,286047003.9,N
1457596555.7,286047005.4,N
1457596575.5,286047001.0,N
1457596595.4,286047002.6,N
1457596615.2,286047000.9,N
1457596635.0,286047000.8,N
1457596635.9,286047000.8,N
1457596655.8,286047000.4,N
1457596675.6,286047000.2,N
1457596695.4,286047000.7,N
1457596715.2,286047000.9,N
1457596735.1,286046998.5,N
1457596736.0,286046998.5,N
1457596755.8,286047000.0,N
1457596775.6,286046996.8,N
1457596795.5,286046992.2,N
